This is the latest recevied weather packets stored in our database for station/object M0UPS-13. If no packets are shown the sender has not sent any weather packets the latest 10 day(s).
| Time | Temp. | Humidity | Pressure | Rain* | Wind** | Luminosity | Snow |
|---|---|---|---|---|---|---|---|
| 1777922702 | 14.44° C | 75% | 1014.6 hPa | 0 mm | - | 2 W/m² | - |
| 1777922403 | 14.44° C | 75% | 1014.7 hPa | 0 mm | - | 2 W/m² | - |
| 1777922103 | 14.44° C | 75% | 1014.7 hPa | 0 mm | - | 3 W/m² | - |
| 1777921803 | 15° C | 75% | 1014.3 hPa | 0 mm | - | 6 W/m² | - |
| 1777921502 | 15° C | 75% | 1014.5 hPa | 0 mm | - | 8 W/m² | - |
| 1777921202 | 15° C | 75% | 1014.5 hPa | 0 mm | - | 10 W/m² | - |
| 1777920902 | 15° C | 75% | 1014.5 hPa | 0 mm | - | 13 W/m² | - |
| 1777920604 | 14.44° C | 75% | 1014.3 hPa | 0 mm | - | 18 W/m² | - |
| 1777920303 | 14.44° C | 75% | 1014.2 hPa | 0 mm | - | 24 W/m² | - |
| 1777920003 | 15° C | 75% | 1014.1 hPa | 0 mm | - | 27 W/m² | - |
| 1777919702 | 15° C | 74% | 1014.1 hPa | 0 mm | - | 30 W/m² | - |
| 1777919403 | 15° C | 74% | 1014.2 hPa | 0 mm | - | 30 W/m² | - |
| 1777919102 | 15° C | 73% | 1014.3 hPa | 0 mm | - | 31 W/m² | - |
| 1777918802 | 15° C | 73% | 1014.3 hPa | 0 mm | - | 34 W/m² | - |
| 1777918504 | 15° C | 73% | 1014.2 hPa | 0 mm | - | 37 W/m² | - |
| 1777918203 | 15° C | 73% | 1014.2 hPa | 0 mm | - | 44 W/m² | - |
| 1777917902 | 15.56° C | 73% | 1014.1 hPa | 0 mm | - | 48 W/m² | - |
| 1777917602 | 15.56° C | 73% | 1014.2 hPa | 0 mm | - | 58 W/m² | - |
| 1777917304 | 15.56° C | 73% | 1014.1 hPa | 0 mm | - | 58 W/m² | - |
| 1777917003 | 15.56° C | 72% | 1014.2 hPa | 0 mm | - | 60 W/m² | - |
| 1777916702 | 15.56° C | 72% | 1014.2 hPa | 0 mm | - | 71 W/m² | - |
| 1777916402 | 15.56° C | 72% | 1014.2 hPa | 0 mm | - | 77 W/m² | - |
| 1777916102 | 15.56° C | 72% | 1014.3 hPa | 0 mm | - | 74 W/m² | - |
| 1777915802 | 15.56° C | 72% | 1014.3 hPa | 0 mm | - | 88 W/m² | - |
| 1777915502 | 15.56° C | 71% | 1014.1 hPa | 0 mm | - | 91 W/m² | - |
* Rain latest hour (hover to see other rain measurements)
** Current wind speed in m/s (hover to see current wind gust speed)